Location: ??????????
(54.8537°N, 38.8755°E)
Time: 22:25:25
(UTC+00:00)

Transit 2A Rocket - Pass Details

Date: 21 September 2024
Orbit: 582 x 908 km, 66.7° (Epoch: 09 October)

Event Time Altitude Azimuth Distance (km) Brightness Sun altitude
Exits shadow 20:15:14 33° 45° (NE) 1,483 6.6 -33.4°
Drops below altitude 10° 20:18:25 10° 43° (NE) 2,587 8.0 -33.6°
Sets 20:20:55 0° 43° (NE) 3,509 8.8 -33.7°
